Flag for U.S.A. Weather past 2 weeks in St. Petersburg, Florida, U.S.A.

Now
84 °F

Thunderstorms. Partly sunny.


Feels Like: 90 °F
Forecast: 78 / 90 °F
Wind: 7 mph from Southeast

Location: Whitted Airport

Current Time: May 25, 2015 at 8:53:06 PM

Latest Report: May 25, 2015 at 7:53 PM


Visibility: 10 mi

Pressure: 30.09 "Hg

Humidity: 70%

Dew point: 73 °F

Location of St. PetersburgLocation

Historic Weather in St. Petersburg — Graph

°F

St. Petersburg temperature yesterday

Maximum temperature yesterday: 89 °F (at 1:53 PM)
Minimum temperature yesterday: 78 °F (at 5:53 AM)
Average temperature yesterday: 82 °F

Past Weeks' High & Low Weather Summary

 TemperatureHumidityPressure
High93 °F (May 11, 3:53 PM)91% (May 12, 10:53 PM)30.21 "Hg (May 12, 10:53 PM)
Low74 °F (May 12, 6:53 PM)37% (May 11, 3:53 PM)29.93 "Hg (May 20, 6:53 PM)
Average82 °F70%30.10 "Hg
* Reported May 10 7:53 PM — May 25 7:53 PM, St. Petersburg, Weather by CustomWeather, © 2015

Note: Actual official high and low records may vary slightly from our data, if they occured in-between our weather recording intervals... More about our weather records

Advertising

St. Petersburg weather history for previous 24 hours

 ConditionsComfort  
Time TempWeatherWind HumidityBarometerVisibility
7:53 PM
Mon, May 25
84 °FThunderstorms. Partly sunny.7 mph70%30.09 "Hg10 mi
7:00 PM86 °FThundershowers. Broken clouds.23 mph70%30.09 "Hg5 mi
5:53 PM88 °FPassing clouds.18 mph65%30.08 "Hg10 mi
4:53 PM92 °FSunny.7 mph44%30.08 "Hg10 mi
3:53 PM93 °FSunny.3 mph42%30.09 "Hg10 mi
2:53 PM92 °FPassing clouds.3 mph47%30.12 "Hg10 mi
1:53 PM91 °FSunny.No wind50%30.14 "Hg10 mi
12:53 PM88 °FSunny.7 mph54%30.15 "Hg10 mi
11:53 AM87 °FSunny.10 mph57%30.16 "Hg10 mi
10:53 AM84 °FSunny.13 mph65%30.16 "Hg10 mi
9:53 AM82 °FPassing clouds.13 mph72%30.17 "Hg10 mi
8:53 AM80 °FSunny.13 mph79%30.16 "Hg10 mi
7:53 AM78 °FSunny.13 mph82%30.16 "Hg10 mi
6:53 AM77 °FClear.14 mph85%30.14 "Hg10 mi
5:53 AM77 °FClear.13 mph85%30.13 "Hg10 mi
4:53 AM78 °FClear.13 mph82%30.13 "Hg10 mi
3:53 AM78 °FClear.13 mph82%30.13 "Hg10 mi
2:53 AM79 °FClear.16 mph82%30.14 "Hg10 mi
1:53 AM79 °FPassing clouds.17 mph82%30.15 "Hg10 mi
12:53 AM79 °FClear.17 mph82%30.16 "Hg10 mi
11:53 PM
Sun, May 24
80 °FClear.15 mph76%30.17 "Hg10 mi
10:53 PM81 °FClear.20 mph72%30.16 "Hg10 mi
9:53 PM82 °FPassing clouds.23 mph67%30.13 "Hg10 mi
8:53 PM83 °FSunny.20 mph72%30.11 "Hg10 mi
Weather by CustomWeather, © 2015

See weather overviewHow to use our weather pages